Regional Weather Roundup
Issued by NWS

Home | Current Version | Previous Version | Graphics & Text | Print | Product List | Glossary On
Versions: 1 2 3 4 5 6 7 8 9 10 11 12 13 14 15 16 17 18 19 20 21 22 23 24 25 26 27 28 29 30 31 32 33 34 35 36 37 38 39 40 41 42 43 44 45 46 47 48 49 50
170
ASUS43 KDMX 011501
RWRIA

WEATHER ROUNDUP FOR IOWA
NATIONAL WEATHER SERVICE DES MOINES IA
900 AM CST WED MAR 01 2017

NOTE: "FAIR" INDICATES FEW OR NO CLOUDS BELOW 12,000 FEET WITH NO
SIGNIFICANT WEATHER AND/OR OBSTRUCTIONS TO VISIBILITY.

* - THESE STATIONS ARE NOT NWS STATIONS...THUS NOT UNDER NWS
QUALITY CONTROL.  THEY ALSO DO NOT REPORT WEATHER SUCH
AS PRECIPITATION OR FOG.

IAZ001>003-012>014-020>022-031>034-043>046-011600-
   NORTHWEST IOWA

CITY           SKY/WX    TMP DP  RH WIND       PRES   REMARKS
CARROLL *      LGT RAIN  34  32  93 NW24G33   29.91R WCI  21
CHEROKEE *     LGT SNOW  30  28  94 NW14G21   29.94R WCI  19
DENISON *      CLOUDY    30  28  93 NW18G25   29.93R WCI  18
LE MARS *      MOSUNNY   28  25  86 NW15G22   29.98R WCI  17
SHELDON *      CLOUDY    27  28 100 NW17      29.92R WCI  14
SIOUX CITY     CLOUDY    31  25  78 NW23G31   29.99R WCI  18
SPENCER        CLOUDY    30  26  85 NW18G24   29.90R WCI  18
STORM LAKE *   CLOUDY    28  27  93 NW20G26   29.91R WCI  15
$$

IAZ055>058-069>071-079>083-090>094-011600-
   SOUTHWEST IOWA

CITY           SKY/WX    TMP DP  RH WIND       PRES   REMARKS
ATLANTIC *     CLOUDY    32  28  86 NW23G31   29.93R WCI  19
AUDUBON *      CLOUDY    32  28  86 NW16G23   29.92R WCI  21
CLARINDA *     CLOUDY    36  32  87 NW13G25   30.00R WCI  27
COUNCIL BLFS * CLOUDY    32  28  86 NW20G26   29.98R WCI  20
CRESTON *      CLOUDY    34  30  86 NW20G30   29.92R WCI  22
HARLAN  *      CLOUDY    32  32 100 NW21G28   29.98R WCI  20
LAMONI         CLOUDY    35  31  85 NW21G29   29.91R WCI  24
RED OAK *      CLOUDY    34  30  86 NW17G28   29.97R WCI  23
SHENANDOAH *   CLOUDY    36  30  80 NW13G21   30.00R WCI  27
$$

IAZ047>049-059>061-072>074-084-011600-
   CENTRAL IOWA

CITY           SKY/WX    TMP DP  RH WIND       PRES   REMARKS
AMES           LGT SNOW  33  32  96 NW16G28   29.85R FOG     WCI  23
ANKENY *       FLURRIES  36  32  87 NW20G26   29.87R WCI  25
BOONE *        LGT SNOW  32  32 100 NW16G26   29.85R WCI  21
CHARITON *     CLOUDY    36  32  87 W20G28    29.86R WCI  25
DES MOINES     LGT SNOW  36  31  82 NW24G36   29.86R WCI  24
GRINNELL*      FLURRIES  33  31  92 W21G32    29.81R WCI  21
KNOXVILLE *    CLOUDY    36  32  87 NW18G28   29.83R WCI  25
MARSHALLTOWN   FLURRIES  32  30  92 NW22G30   29.79R WCI  19
NEWTON *       CLOUDY    34  30  86 NW22G29   29.82R FOG     WCI  22
PELLA *        PTSUNNY   36  32  87 NW23G30   29.84R WCI  24
PERRY *        LGT SNOW  33  32  96 NW14G22   29.89R VSB 1   WCI  23
$$

IAZ004>006-015-016-023>025-035-036-011600-
   NORTH CENTRAL IOWA

CITY           SKY/WX    TMP DP  RH WIND       PRES   REMARKS
ALGONA *       CLOUDY    32  30  93 NW20G26   29.86R WCI  20
CLARION *      CLOUDY    30  30 100 NW21      29.84R WCI  17
ESTHERVILLE    CLOUDY    29  27  92 NW18      29.87R WCI  16
FORT DODGE *   CLOUDY    30  27  86 NW10G16   29.88R WCI  21
MASON CITY     CLOUDY    28  25  88 NW22      29.82R FOG     WCI  14
FOREST CITY *  LGT SNOW  28  28 100 N21G26    29.82R WCI  15
WEBSTER CITY * CLOUDY    32  28  86 NW24G31   29.84R WCI  19
IOWA FALLS *   CLOUDY    32  28  87 NW24G30   29.82R WCI  19
$$

IAZ007>011-017>019-026>030-037>042-050>054-066-011600-
   NORTHEAST IOWA

CITY           SKY/WX    TMP DP  RH WIND       PRES   REMARKS
CEDAR RAPIDS   CLOUDY    33  33 100 W28G33    29.72R FOG     WCI  20
CHARLES CITY * SNOW      28  28 100 NW21G29   29.76R VSB 1/2 WCI  15
CLINTON *      CLOUDY    37  35  92 W24       29.64R WCI  26
DECORAH *      CLOUDY    30  28  93 NW16G23   29.67R WCI  19
DUBUQUE        CLOUDY    35  33  92 NW14      29.63R WCI  26
MONTICELLO *   CLOUDY    36  32  87 NW16G26   29.67R WCI  26
OELWEIN *      FLURRIES  32  32 100 NW23G29   29.72R WCI  19
WATERLOO       LGT SNOW  31  28  89 NW21G30   29.75R FOG     WCI  18
$$

IAZ064-065-067-068-078-011600-
   EAST CENTRAL IOWA

CITY           SKY/WX    TMP DP  RH WIND       PRES   REMARKS
DAVENPORT      CLOUDY    37  34  89 W21G30    29.68R WCI  26
IOWA CITY      CLOUDY    37  33  85 MISG      29.75R
MUSCATINE *    CLOUDY    37  34  87 W25G32    29.74R WCI  26
QUAD CITIES    CLOUDY    38  34  85 W20G33    29.68R WCI  28
$$

IAZ062-063-075>077-085>089-095>099-011600-
   SOUTHEAST IOWA

CITY           SKY/WX    TMP DP  RH WIND       PRES   REMARKS
BURLINGTON     CLOUDY    39  35  86 W14G35    29.75R WCI  31
FAIRFIELD *    CLOUDY    37  32  81 W22G30    29.78R WCI  27
FORT MADISON * CLOUDY    39  36  87 W24G35    29.78R WCI  28
KEOKUK *       CLOUDY    39  36  87 W21G31    29.79R WCI  29
OTTUMWA        CLOUDY    37  34  89 W17G29    29.81R WCI  27
WASHINGTON *   CLOUDY    36  34  93 W26G35    29.77R WCI  23
$$

ABBREVIATIONS USED IN REMARKS
   TC - TEMPERATURES IN CELSIUS
  WCI - WIND CHILL INDEX
   HX - HEAT INDEX
  VSB - VISIBILITY
$$





USA.gov is the U.S. government's official web portal to all federal, state and local government web resources and services.